Weather History for Dover AFB, DE

Change the Weather History Date:

Thursday, September 27, 2012

  Actual Average Record
Temperature  
Mean Temperature 72 °F -  
Max Temperature 79 °F 77 °F 93 °F (1998)
Min Temperature 66 °F 55 °F 41 °F (1950)
Cooling Degree Days 7    
Growing Degree Days 22 (Base 50)    
Moisture  
Dew Point 65 °F    
Average Humidity 81    
Maximum Humidity 95    
Minimum Humidity 59    
Precipitation  
Precipitation 0.00 in - - ()
Sea Level Pressure  
Sea Level Pressure 30.12 in    
Wind  
Wind Speed 7 mph (ESE)    
Max Wind Speed 12 mph    
Max Gust Speed -    
Visibility 10 miles    
Events      
Averages and records for this station are not official NWS values.
T = Trace of Precipitation, MM = Missing Value Source: NWS Daily Summary

Daily Weather History Graph

Daily Weather History Graph

Search for Another Location

Airport:

Trip Planner

Search our weather history database for the weather conditions in past years. The results will help you decide how hot, cold, wet, or windy it might be!

Date:

Astronomy

Sep. 27, 2012 Rise Set
Actual Time 6:54 AM EDT 6:50 PM EDT
Civil Twilight 6:27 AM EDT 7:16 PM EDT
Nautical Twilight 5:56 AM EDT 7:47 PM EDT
Astronomical Twilight 5:25 AM EDT 8:19 PM EDT
Moon 5:19 PM EDT 4:21 AM EDT
Length of Visible Light 12h 48m
Length of Day
11h 55m
Waxing Gibbous, 94% of the Moon is Illuminated
Sep 27
Waxing Gibbous
Sep 29
Full
Oct 8
Last Quarter
Oct 15
New
Oct 21
First Quarter

Hourly Weather History & Observations

Time (EDT) Temp. Dew Point Humidity Pressure Visibility Wind Dir Wind Speed Gust Speed Precip Events Conditions
12:55 AM 71.8 °F 65.1 °F 79% 30.08 in 10.0 mi SSW 11.5 mph - N/A   Scattered Clouds
1:55 AM 70.7 °F 64.8 °F 81% 30.08 in 10.0 mi SSW 11.5 mph - N/A   Scattered Clouds
2:55 AM 69.3 °F 64.8 °F 86% 30.08 in 10.0 mi SSW 8.1 mph - N/A   Clear
3:55 AM 67.8 °F 64.6 °F 89% 30.09 in 10.0 mi SSW 5.8 mph - N/A   Mostly Cloudy
4:55 AM 66.7 °F 64.4 °F 92% 30.10 in 10.0 mi South 6.9 mph - N/A   Mostly Cloudy
5:55 AM 66.7 °F 64.8 °F 93% 30.13 in 10.0 mi Calm Calm - N/A   Mostly Cloudy
6:55 AM 67.6 °F 62.6 °F 84% 30.15 in 10.0 mi NNW 8.1 mph - N/A   Mostly Cloudy
7:55 AM 66.7 °F 64.0 °F 91% 30.15 in 10.0 mi NNW 4.6 mph - N/A   Partly Cloudy
8:55 AM 68.4 °F 65.3 °F 90% 30.16 in 10.0 mi SE 3.5 mph - N/A   Partly Cloudy
9:55 AM 71.1 °F 63.3 °F 76% 30.16 in 10.0 mi Calm Calm - N/A   Partly Cloudy
10:55 AM 73.4 °F 63.9 °F 72% 30.17 in 10.0 mi Variable 4.6 mph - N/A   Scattered Clouds
11:55 AM 75.4 °F 62.1 °F 63% 30.17 in 10.0 mi WSW 6.9 mph - N/A   Partly Cloudy
12:55 PM 76.5 °F 62.1 °F 61% 30.15 in 10.0 mi Calm Calm - N/A   Partly Cloudy
1:55 PM 78.6 °F 63.1 °F 59% 30.13 in 10.0 mi NNW 5.8 mph - N/A   Partly Cloudy
2:55 PM 76.5 °F 65.1 °F 68% 30.12 in 10.0 mi East 9.2 mph - N/A   Partly Cloudy
3:55 PM 73.6 °F 64.6 °F 73% 30.12 in 10.0 mi East 8.1 mph - N/A   Clear
4:55 PM 73.4 °F 63.5 °F 71% 30.12 in 10.0 mi East 9.2 mph - N/A   Clear
5:55 PM 72.1 °F 63.1 °F 73% 30.12 in 10.0 mi East 6.9 mph - N/A   Clear
6:55 PM 69.3 °F 63.3 °F 81% 30.11 in 10.0 mi East 5.8 mph - N/A   Clear
7:55 PM 69.3 °F 65.3 °F 87% 30.12 in 10.0 mi East 5.8 mph - N/A   Mostly Cloudy
8:55 PM 70.2 °F 65.5 °F 85% 30.12 in 10.0 mi ESE 8.1 mph - N/A   Mostly Cloudy
9:06 PM 69.8 °F 66.2 °F 88% 30.12 in 10.0 mi ESE 8.1 mph - N/A   Mostly Cloudy
9:17 PM 69.8 °F 66.2 °F 88% 30.13 in 10.0 mi East 8.1 mph - N/A   Mostly Cloudy
9:55 PM 69.3 °F 66.2 °F 90% 30.13 in 10.0 mi ESE 6.9 mph - N/A   Scattered Clouds
10:55 PM 69.3 °F 66.7 °F 92% 30.12 in 10.0 mi ESE 8.1 mph - N/A   Clear
11:55 PM 69.3 °F 67.8 °F 95% 30.11 in 10.0 mi ESE 6.9 mph - N/A   Clear